Time,TemperatureF,DewpointF,PressureIn,WindDirection,WindDirectionDegrees,WindSpeedMPH,WindSpeedGustMPH,Humidity,HourlyPrecipIn,Conditions,Clouds,dailyrainin,SoftwareType,DateUTC
2013-04-18 05:58:00,41.9,13.2,30.36,SSE,148,0.0,0.0,31,0.00,,,0.00,WUHU216WMR968SP,2013-04-18 09:58:00,
2013-04-18 06:03:00,42.1,13.4,30.36,SE,124,0.0,2.7,31,0.00,,,0.00,WUHU216WMR968SP,2013-04-18 10:03:00,
2013-04-18 06:08:00,42.3,13.6,30.36,SE,139,0.0,3.1,31,0.00,,,0.00,WUHU216WMR968SP,2013-04-18 10:08:00,
2013-04-18 06:13:00,42.4,14.4,30.36,SE,131,0.0,3.1,32,0.00,,,0.00,WUHU216WMR968SP,2013-04-18 10:13:00,
2013-04-18 06:18:00,43.0,15.6,30.36,SSE,155,0.0,0.0,33,0.00,,,0.00,WUHU216WMR968SP,2013-04-18 10:18:00,
2013-04-18 06:23:00,43.0,15.6,30.36,SE,146,0.0,3.1,33,0.00,,,0.00,WUHU216WMR968SP,2013-04-18 10:23:00,
2013-04-18 06:28:00,43.5,16.0,30.36,SE,135,0.0,4.0,33,0.00,,,0.00,WUHU216WMR968SP,2013-04-18 10:28:00,
2013-04-18 06:33:00,45.0,18.7,30.36,SE,129,0.0,4.0,35,0.00,,,0.00,WUHU216WMR968SP,2013-04-18 10:33:00,
2013-04-18 06:38:00,46.8,19.0,30.36,SSE,168,3.1,5.4,33,0.00,,,0.00,WUHU216WMR968SP,2013-04-18 10:38:00,
2013-04-18 06:43:00,47.3,15.6,30.36,SE,127,3.6,5.4,28,0.00,,,0.00,WUHU216WMR968SP,2013-04-18 10:43:00,
2013-04-18 06:48:00,48.2,15.6,30.36,SSE,165,4.0,6.3,27,0.00,,,0.00,WUHU216WMR968SP,2013-04-18 10:48:00,
2013-04-18 06:53:00,48.2,4.0,30.36,ESE,119,3.6,6.3,16,0.00,,,0.00,WUHU216WMR968SP,2013-04-18 10:53:00,
2013-04-18 06:58:00,48.7,4.4,30.36,ESE,116,4.0,6.3,16,0.00,,,0.00,WUHU216WMR968SP,2013-04-18 10:58:00,
2013-04-18 07:03:00,49.1,1.8,30.36,SSE,149,4.9,6.3,14,0.00,,,0.00,WUHU216WMR968SP,2013-04-18 11:03:00,
2013-04-18 07:08:00,49.1,1.8,30.36,SSE,163,4.0,6.3,14,0.00,,,0.00,WUHU216WMR968SP,2013-04-18 11:08:00,
2013-04-18 07:13:00,49.8,2.4,30.36,SSE,162,4.9,6.7,14,0.00,,,0.00,WUHU216WMR968SP,2013-04-18 11:13:00,
2013-04-18 07:18:00,50.2,-2.5,30.36,ESE,106,4.0,6.7,11,0.00,,,0.00,WUHU216WMR968SP,2013-04-18 11:18:00,
2013-04-18 07:23:00,50.2,-2.5,30.36,SSE,154,4.0,7.6,11,0.00,,,0.00,WUHU216WMR968SP,2013-04-18 11:23:00,
2013-04-18 07:28:00,50.5,-2.3,30.36,SSE,157,4.0,7.6,11,0.00,,,0.00,WUHU216WMR968SP,2013-04-18 11:28:00,
2013-04-18 07:33:00,50.4,-2.4,30.36,SSE,167,4.9,6.3,11,0.00,,,0.00,WUHU216WMR968SP,2013-04-18 11:33:00,
2013-04-18 07:38:00,50.2,-2.5,30.39,SSW,211,5.4,8.1,11,0.00,,,0.00,WUHU216WMR968SP,2013-04-18 11:38:00,
2013-04-18 07:43:00,50.4,-2.4,30.39,SE,129,4.5,8.1,11,0.00,,,0.00,WUHU216WMR968SP,2013-04-18 11:43:00,
2013-04-18 07:48:00,50.4,-2.4,30.39,SE,138,4.0,7.2,11,0.00,,,0.00,WUHU216WMR968SP,2013-04-18 11:48:00,
2013-04-18 07:53:00,50.5,-2.3,30.39,SSE,166,5.4,7.2,11,0.00,,,0.00,WUHU216WMR968SP,2013-04-18 11:53:00,
2013-04-18 07:58:00,50.5,-2.3,30.39,SSW,196,3.1,6.3,11,0.00,,,0.00,WUHU216WMR968SP,2013-04-18 11:58:00,
2013-04-18 08:03:00,51.1,-1.8,30.39,SSE,158,2.2,6.3,11,0.00,,,0.00,WUHU216WMR968SP,2013-04-18 12:03:00,
2013-04-18 08:08:00,51.6,-1.4,30.39,SE,136,0.0,6.3,11,0.00,,,0.00,WUHU216WMR968SP,2013-04-18 12:08:00,
2013-04-18 08:13:00,52.2,-1.0,30.39,SE,139,3.1,5.4,11,0.00,,,0.00,WUHU216WMR968SP,2013-04-18 12:13:00,
2013-04-18 08:18:00,52.3,-0.9,30.39,SSW,196,2.7,4.9,11,0.00,,,0.00,WUHU216WMR968SP,2013-04-18 12:18:00,
2013-04-18 08:23:00,53.2,-0.2,30.39,SSE,151,3.6,6.3,11,0.00,,,0.00,WUHU216WMR968SP,2013-04-18 12:23:00,
2013-04-18 08:28:00,53.1,-0.3,30.39,South,169,3.1,6.3,11,0.00,,,0.00,WUHU216WMR968SP,2013-04-18 12:28:00,
2013-04-18 08:33:00,53.6,-2.0,30.39,South,181,3.1,5.8,10,0.00,,,0.00,WUHU216WMR968SP,2013-04-18 12:33:00,
2013-04-18 08:38:00,54.3,-6.1,30.39,South,184,3.1,5.8,8,0.00,,,0.00,WUHU216WMR968SP,2013-04-18 12:38:00,
2013-04-18 08:43:00,55.6,-7.8,30.39,South,171,0.0,6.7,7,0.00,,,0.00,WUHU216WMR968SP,2013-04-18 12:43:00,
2013-04-18 08:48:00,55.2,-5.4,30.39,South,174,4.5,8.1,8,0.00,,,0.00,WUHU216WMR968SP,2013-04-18 12:48:00,
2013-04-18 08:53:00,55.0,-5.6,30.39,South,171,4.0,8.1,8,0.00,,,0.00,WUHU216WMR968SP,2013-04-18 12:53:00,
2013-04-18 08:58:00,57.7,-6.3,30.39,South,178,4.9,7.6,7,0.00,,,0.00,WUHU216WMR968SP,2013-04-18 12:58:00,
2013-04-18 09:03:00,58.1,-6.0,30.39,South,183,5.8,8.7,7,0.00,,,0.00,WUHU216WMR968SP,2013-04-18 13:03:00,
2013-04-18 09:08:00,57.0,-6.8,30.39,South,180,4.9,8.7,7,0.00,,,0.00,WUHU216WMR968SP,2013-04-18 13:08:00,
2013-04-18 09:13:00,57.0,-6.8,30.39,SSE,155,5.4,8.7,7,0.00,,,0.00,WUHU216WMR968SP,2013-04-18 13:13:00,
2013-04-18 09:18:00,59.0,-5.3,30.39,South,181,5.8,8.3,7,0.00,,,0.00,WUHU216WMR968SP,2013-04-18 13:18:00,
2013-04-18 09:23:00,59.0,-5.3,30.39,South,172,4.0,7.6,7,0.00,,,0.00,WUHU216WMR968SP,2013-04-18 13:23:00,
2013-04-18 09:28:00,58.3,-5.8,30.39,South,183,6.3,8.3,7,0.00,,,0.00,WUHU216WMR968SP,2013-04-18 13:28:00,
2013-04-18 09:33:00,57.6,-6.4,30.39,South,177,5.8,8.7,7,0.00,,,0.00,WUHU216WMR968SP,2013-04-18 13:33:00,
2013-04-18 09:38:00,58.1,-6.0,30.39,South,179,6.7,8.7,7,0.00,,,0.00,WUHU216WMR968SP,2013-04-18 13:38:00,
2013-04-18 09:43:00,58.5,-5.7,30.39,SSE,156,4.9,8.3,7,0.00,,,0.00,WUHU216WMR968SP,2013-04-18 13:43:00,
2013-04-18 09:48:00,59.4,-5.0,30.39,South,179,5.8,10.1,7,0.00,,,0.00,WUHU216WMR968SP,2013-04-18 13:48:00,
2013-04-18 09:53:00,59.4,-5.0,30.39,South,177,5.4,10.1,7,0.00,,,0.00,WUHU216WMR968SP,2013-04-18 13:53:00,
2013-04-18 09:58:00,59.2,-5.2,30.39,South,182,6.3,10.5,7,0.00,,,0.00,WUHU216WMR968SP,2013-04-18 13:58:00,
2013-04-18 10:03:00,58.8,-5.5,30.39,South,191,6.3,10.5,7,0.00,,,0.00,WUHU216WMR968SP,2013-04-18 14:03:00,
2013-04-18 10:08:00,58.5,-5.7,30.39,South,177,6.3,8.7,7,0.00,,,0.00,WUHU216WMR968SP,2013-04-18 14:08:00,
2013-04-18 10:13:00,58.5,-5.7,30.39,SSE,157,5.8,8.7,7,0.00,,,0.00,WUHU216WMR968SP,2013-04-18 14:13:00,
2013-04-18 10:18:00,57.0,-6.8,30.39,South,180,6.7,10.5,7,0.00,,,0.00,WUHU216WMR968SP,2013-04-18 14:18:00,
2013-04-18 10:23:00,59.2,-5.2,30.39,South,181,4.9,10.5,7,0.00,,,0.00,WUHU216WMR968SP,2013-04-18 14:23:00,
2013-04-18 10:28:00,59.4,-5.0,30.39,South,182,6.3,8.7,7,0.00,,,0.00,WUHU216WMR968SP,2013-04-18 14:28:00,
2013-04-18 10:33:00,59.2,-5.2,30.39,South,176,6.7,8.7,7,0.00,,,0.00,WUHU216WMR968SP,2013-04-18 14:33:00,
2013-04-18 10:38:00,59.0,-5.3,30.39,SSE,166,5.8,8.7,7,0.00,,,0.00,WUHU216WMR968SP,2013-04-18 14:38:00,
2013-04-18 10:43:00,58.8,-5.5,30.39,SSE,160,4.5,8.7,7,0.00,,,0.00,WUHU216WMR968SP,2013-04-18 14:43:00,
2013-04-18 10:48:00,59.0,-5.3,30.39,South,187,8.3,10.5,7,0.00,,,0.00,WUHU216WMR968SP,2013-04-18 14:48:00,
2013-04-18 10:53:00,59.7,-4.8,30.39,SSW,210,4.5,10.5,7,0.00,,,0.00,WUHU216WMR968SP,2013-04-18 14:53:00,
2013-04-18 10:58:00,59.9,-4.7,30.39,SSW,202,5.8,10.5,7,0.00,,,0.00,WUHU216WMR968SP,2013-04-18 14:58:00,
2013-04-18 11:03:00,59.2,-5.2,30.39,SSW,193,7.2,10.5,7,0.00,,,0.00,WUHU216WMR968SP,2013-04-18 15:03:00,
2013-04-18 11:08:00,57.6,-6.4,30.39,South,181,6.3,10.5,7,0.00,,,0.00,WUHU216WMR968SP,2013-04-18 15:08:00,
2013-04-18 11:13:00,57.9,-6.1,30.39,South,185,8.3,11.4,7,0.00,,,0.00,WUHU216WMR968SP,2013-04-18 15:13:00,
2013-04-18 11:18:00,56.7,-7.0,30.39,SSW,204,8.1,12.8,7,0.00,,,0.00,WUHU216WMR968SP,2013-04-18 15:18:00,
2013-04-18 11:23:00,58.8,-5.5,30.36,South,182,5.4,12.8,7,0.00,,,0.00,WUHU216WMR968SP,2013-04-18 15:23:00,
2013-04-18 11:28:00,58.3,-5.8,30.36,South,186,8.3,11.0,7,0.00,,,0.00,WUHU216WMR968SP,2013-04-18 15:28:00,
2013-04-18 11:33:00,55.6,-7.8,30.36,SSE,159,5.8,11.0,7,0.00,,,0.00,WUHU216WMR968SP,2013-04-18 15:33:00,
2013-04-18 11:38:00,54.5,-6.0,30.36,South,190,5.4,12.8,8,0.00,,,0.00,WUHU216WMR968SP,2013-04-18 15:38:00,
2013-04-18 11:43:00,54.7,-5.8,30.36,South,176,7.6,12.8,8,0.00,,,0.00,WUHU216WMR968SP,2013-04-18 15:43:00,
2013-04-18 11:48:00,54.7,-5.8,30.36,South,184,6.3,12.8,8,0.00,,,0.00,WUHU216WMR968SP,2013-04-18 15:48:00,
2013-04-18 11:53:00,54.7,-5.8,30.36,South,174,7.6,12.3,8,0.00,,,0.00,WUHU216WMR968SP,2013-04-18 15:53:00,
2013-04-18 11:58:00,54.5,-6.0,30.36,SSW,204,7.2,12.3,8,0.00,,,0.00,WUHU216WMR968SP,2013-04-18 15:58:00,
2013-04-18 12:03:00,54.1,-6.3,30.36,SSW,203,8.7,11.0,8,0.00,,,0.00,WUHU216WMR968SP,2013-04-18 16:03:00,
2013-04-18 12:08:00,53.8,-6.5,30.36,South,173,8.7,11.0,8,0.00,,,0.00,WUHU216WMR968SP,2013-04-18 16:08:00,
2013-04-18 12:13:00,54.1,-6.3,30.36,SSW,192,8.1,13.2,8,0.00,,,0.00,WUHU216WMR968SP,2013-04-18 16:13:00,
2013-04-18 12:18:00,54.1,-6.3,30.36,South,185,4.9,13.2,8,0.00,,,0.00,WUHU216WMR968SP,2013-04-18 16:18:00,
2013-04-18 12:23:00,54.0,-6.3,30.36,SSW,194,6.3,12.3,8,0.00,,,0.00,WUHU216WMR968SP,2013-04-18 16:23:00,
2013-04-18 12:28:00,54.0,-6.3,30.36,South,180,6.7,11.0,8,0.00,,,0.00,WUHU216WMR968SP,2013-04-18 16:28:00,
2013-04-18 12:33:00,53.2,-6.9,30.36,SSW,192,9.6,11.0,8,0.00,,,0.00,WUHU216WMR968SP,2013-04-18 16:33:00,
2013-04-18 12:38:00,53.4,-6.8,30.36,South,177,10.5,11.0,8,0.00,,,0.00,WUHU216WMR968SP,2013-04-18 16:38:00,
2013-04-18 12:44:00,53.4,-6.8,30.36,South,177,9.6,13.2,8,0.00,,,0.00,WUHU216WMR968SP,2013-04-18 16:44:00,
2013-04-18 12:49:00,53.8,-6.5,30.36,South,188,8.1,13.6,8,0.00,,,0.00,WUHU216WMR968SP,2013-04-18 16:49:00,
2013-04-18 12:54:00,52.9,-7.2,30.33,South,181,11.4,13.6,8,0.00,,,0.00,WUHU216WMR968SP,2013-04-18 16:54:00,
2013-04-18 12:58:00,53.1,-7.0,30.33,South,181,8.7,13.6,8,0.00,,,0.00,WUHU216WMR968SP,2013-04-18 16:58:00,
2013-04-18 13:03:00,52.7,-7.3,30.33,South,177,11.0,15.4,8,0.00,,,0.00,WUHU216WMR968SP,2013-04-18 17:03:00,
2013-04-18 13:08:00,53.1,-7.0,30.33,South,185,9.6,15.4,8,0.00,,,0.00,WUHU216WMR968SP,2013-04-18 17:08:00,
2013-04-18 13:13:00,53.6,-6.6,30.33,SSE,167,9.6,15.4,8,0.00,,,0.00,WUHU216WMR968SP,2013-04-18 17:13:00,
2013-04-18 13:18:00,54.1,-6.3,30.33,South,190,8.7,15.0,8,0.00,,,0.00,WUHU216WMR968SP,2013-04-18 17:18:00,
2013-04-18 13:23:00,53.8,-6.5,30.33,South,185,11.0,15.9,8,0.00,,,0.00,WUHU216WMR968SP,2013-04-18 17:23:00,
2013-04-18 13:28:00,53.1,-7.0,30.33,SSW,201,10.1,15.9,8,0.00,,,0.00,WUHU216WMR968SP,2013-04-18 17:28:00,
2013-04-18 13:33:00,52.7,-7.3,30.33,SSW,194,12.3,15.9,8,0.00,,,0.00,WUHU216WMR968SP,2013-04-18 17:33:00,
2013-04-18 13:38:00,53.1,-7.0,30.30,South,189,6.3,15.4,8,0.00,,,0.00,WUHU216WMR968SP,2013-04-18 17:38:00,
2013-04-18 13:43:00,52.9,-7.2,30.30,South,183,8.7,13.2,8,0.00,,,0.00,WUHU216WMR968SP,2013-04-18 17:43:00,
2013-04-18 13:48:00,53.8,-6.5,30.30,South,169,8.7,13.2,8,0.00,,,0.00,WUHU216WMR968SP,2013-04-18 17:48:00,
2013-04-18 13:53:00,54.5,-6.0,30.30,SSW,197,7.6,13.2,8,0.00,,,0.00,WUHU216WMR968SP,2013-04-18 17:53:00,
2013-04-18 13:58:00,54.0,-6.3,30.30,SSW,197,9.2,13.2,8,0.00,,,0.00,WUHU216WMR968SP,2013-04-18 17:58:00,
2013-04-18 14:03:00,54.3,-6.1,30.30,South,186,7.6,12.3,8,0.00,,,0.00,WUHU216WMR968SP,2013-04-18 18:03:00,
2013-04-18 14:08:00,54.3,-6.1,30.30,SSW,196,10.1,12.3,8,0.00,,,0.00,WUHU216WMR968SP,2013-04-18 18:08:00,
2013-04-18 14:13:00,54.5,-6.0,30.30,South,173,7.6,11.9,8,0.00,,,0.00,WUHU216WMR968SP,2013-04-18 18:13:00,
2013-04-18 14:18:00,54.0,-6.3,30.30,South,171,8.3,12.8,8,0.00,,,0.00,WUHU216WMR968SP,2013-04-18 18:18:00,
2013-04-18 14:23:00,54.3,-6.1,30.30,SSW,204,7.2,12.8,8,0.00,,,0.00,WUHU216WMR968SP,2013-04-18 18:23:00,
2013-04-18 14:30:00,54.5,-6.0,30.30,SSE,168,8.7,9.6,8,0.00,,,0.00,WUHU216WMR968SP,2013-04-18 18:30:00,
2013-04-18 14:35:00,54.7,-5.8,30.30,SSE,167,8.1,10.5,8,0.00,,,0.00,WUHU216WMR968SP,2013-04-18 18:35:00,
2013-04-18 14:40:00,54.9,-5.7,30.30,South,188,6.3,12.8,8,0.00,,,0.00,WUHU216WMR968SP,2013-04-18 18:40:00,
2013-04-18 14:45:00,54.9,-5.7,30.30,South,187,7.2,15.0,8,0.00,,,0.00,WUHU216WMR968SP,2013-04-18 18:45:00,
2013-04-18 14:50:00,54.1,-6.3,30.30,South,178,8.7,15.0,8,0.00,,,0.00,WUHU216WMR968SP,2013-04-18 18:50:00,
2013-04-18 14:55:00,54.1,-6.3,30.27,SSW,207,10.5,15.4,8,0.00,,,0.00,WUHU216WMR968SP,2013-04-18 18:55:00,
2013-04-18 15:00:00,54.0,-6.3,30.27,South,182,8.3,15.4,8,0.00,,,0.00,WUHU216WMR968SP,2013-04-18 19:00:00,
2013-04-18 15:05:00,54.1,-6.3,30.27,SSW,195,10.5,13.2,8,0.00,,,0.00,WUHU216WMR968SP,2013-04-18 19:05:00,
2013-04-18 15:10:00,54.9,-5.7,30.27,South,170,5.8,13.2,8,0.00,,,0.00,WUHU216WMR968SP,2013-04-18 19:10:00,
2013-04-18 15:15:00,54.9,-5.7,30.27,SSW,197,7.2,11.4,8,0.00,,,0.00,WUHU216WMR968SP,2013-04-18 19:15:00,
2013-04-18 15:20:00,54.5,-6.0,30.27,South,179,6.7,14.5,8,0.00,,,0.00,WUHU216WMR968SP,2013-04-18 19:20:00,
2013-04-18 15:25:00,54.3,-6.1,30.27,SSE,162,8.7,14.5,8,0.00,,,0.00,WUHU216WMR968SP,2013-04-18 19:25:00,
2013-04-18 15:30:00,54.1,-6.3,30.27,South,184,11.4,13.2,8,0.00,,,0.00,WUHU216WMR968SP,2013-04-18 19:30:00,
2013-04-18 15:35:00,54.1,-6.3,30.27,South,189,8.3,13.2,8,0.00,,,0.00,WUHU216WMR968SP,2013-04-18 19:35:00,
2013-04-18 15:40:00,53.8,-6.5,30.27,South,184,9.6,12.3,8,0.00,,,0.00,WUHU216WMR968SP,2013-04-18 19:40:00,
2013-04-18 15:45:00,53.6,-6.6,30.27,SSW,203,10.1,12.3,8,0.00,,,0.00,WUHU216WMR968SP,2013-04-18 19:45:00,
2013-04-18 15:50:00,54.0,-6.3,30.27,SSE,167,8.3,12.3,8,0.00,,,0.00,WUHU216WMR968SP,2013-04-18 19:50:00,
2013-04-18 15:55:00,53.8,-6.5,30.27,South,184,8.3,12.3,8,0.00,,,0.00,WUHU216WMR968SP,2013-04-18 19:55:00,
2013-04-18 16:00:00,53.8,-6.5,30.27,SSE,159,7.6,11.0,8,0.00,,,0.00,WUHU216WMR968SP,2013-04-18 20:00:00,
2013-04-18 16:05:00,55.0,-5.6,30.27,SSW,207,7.2,12.3,8,0.00,,,0.00,WUHU216WMR968SP,2013-04-18 20:05:00,
2013-04-18 16:10:00,55.9,-7.6,30.27,SW,228,4.5,12.3,7,0.00,,,0.00,WUHU216WMR968SP,2013-04-18 20:10:00,
2013-04-18 16:15:00,56.8,-6.9,30.27,South,173,6.3,11.0,7,0.00,,,0.00,WUHU216WMR968SP,2013-04-18 20:15:00,
2013-04-18 16:20:00,57.9,-6.1,30.27,ENE,71,5.4,10.5,7,0.00,,,0.00,WUHU216WMR968SP,2013-04-18 20:20:00,
2013-04-18 16:25:00,58.3,-5.8,30.24,SSW,202,5.4,10.5,7,0.00,,,0.00,WUHU216WMR968SP,2013-04-18 20:25:00,
2013-04-18 16:30:00,58.5,-5.7,30.24,SSW,197,0.0,10.5,7,0.00,,,0.00,WUHU216WMR968SP,2013-04-18 20:30:00,
2013-04-18 16:35:00,58.3,-5.8,30.24,SW,232,4.0,10.5,7,0.00,,,0.00,WUHU216WMR968SP,2013-04-18 20:35:00,
2013-04-18 16:40:00,57.9,-6.1,30.24,WSW,250,5.4,10.1,7,0.00,,,0.00,WUHU216WMR968SP,2013-04-18 20:40:00,
2013-04-18 16:45:00,57.2,-6.6,30.24,WNW,282,5.4,11.0,7,0.00,,,0.00,WUHU216WMR968SP,2013-04-18 20:45:00,
2013-04-18 16:50:00,56.7,-7.0,30.24,SSW,192,4.9,11.0,7,0.00,,,0.00,WUHU216WMR968SP,2013-04-18 20:50:00,
2013-04-18 16:55:00,56.1,-7.5,30.24,SW,219,5.4,10.5,7,0.00,,,0.00,WUHU216WMR968SP,2013-04-18 20:55:00,
2013-04-18 17:00:00,55.9,-7.6,30.24,South,175,4.0,8.7,7,0.00,,,0.00,WUHU216WMR968SP,2013-04-18 21:00:00,
2013-04-18 17:05:00,55.9,-7.6,30.24,SSE,168,3.1,8.7,7,0.00,,,0.00,WUHU216WMR968SP,2013-04-18 21:05:00,
2013-04-18 17:10:00,55.9,-7.6,30.24,South,182,3.1,7.6,7,0.00,,,0.00,WUHU216WMR968SP,2013-04-18 21:10:00,
2013-04-18 17:15:00,55.9,-7.6,30.24,West,265,2.7,6.3,7,0.00,,,0.00,WUHU216WMR968SP,2013-04-18 21:15:00,
2013-04-18 17:20:00,55.9,-7.6,30.24,South,178,3.1,5.8,7,0.00,,,0.00,WUHU216WMR968SP,2013-04-18 21:20:00,
2013-04-18 17:25:00,55.8,-7.7,30.21,South,191,2.2,6.3,7,0.00,,,0.00,WUHU216WMR968SP,2013-04-18 21:25:00,
2013-04-18 17:30:00,55.6,-7.8,30.21,SW,224,2.2,7.2,7,0.00,,,0.00,WUHU216WMR968SP,2013-04-18 21:30:00,
2013-04-18 17:35:00,55.2,-5.4,30.21,West,264,3.6,8.3,8,0.00,,,0.00,WUHU216WMR968SP,2013-04-18 21:35:00,
2013-04-18 17:40:00,55.0,-5.6,30.21,South,171,2.7,8.7,8,0.00,,,0.00,WUHU216WMR968SP,2013-04-18 21:40:00,
2013-04-18 17:45:00,55.0,-5.6,30.21,NW,317,3.6,8.7,8,0.00,,,0.00,WUHU216WMR968SP,2013-04-18 21:45:00,
2013-04-18 17:50:00,54.5,-6.0,30.21,SSW,198,3.1,8.1,8,0.00,,,0.00,WUHU216WMR968SP,2013-04-18 21:50:00,
2013-04-18 17:55:00,54.1,-6.3,30.21,SSE,156,3.6,7.6,8,0.00,,,0.00,WUHU216WMR968SP,2013-04-18 21:55:00,
2013-04-18 18:00:00,54.0,-6.3,30.21,WSW,244,3.6,7.6,8,0.00,,,0.00,WUHU216WMR968SP,2013-04-18 22:00:00,
2013-04-18 18:05:00,53.8,-6.5,30.21,WSW,246,3.1,6.3,8,0.00,,,0.00,WUHU216WMR968SP,2013-04-18 22:05:00,
2013-04-18 18:10:00,53.6,-6.6,30.21,SSW,204,4.0,6.3,8,0.00,,,0.00,WUHU216WMR968SP,2013-04-18 22:10:00,
2013-04-18 18:15:00,53.2,-6.9,30.21,NW,305,3.1,6.3,8,0.00,,,0.00,WUHU216WMR968SP,2013-04-18 22:15:00,
2013-04-18 18:20:00,53.2,-6.9,30.21,North,10,3.1,6.3,8,0.00,,,0.00,WUHU216WMR968SP,2013-04-18 22:20:00,
2013-04-18 18:25:00,53.4,-6.8,30.21,North,11,0.0,5.8,8,0.00,,,0.00,WUHU216WMR968SP,2013-04-18 22:25:00,
2013-04-18 18:30:00,54.3,-6.1,30.21,NW,321,2.2,5.4,8,0.00,,,0.00,WUHU216WMR968SP,2013-04-18 22:30:00,
2013-04-18 18:35:00,54.5,-6.0,30.21,WSW,249,3.1,6.3,8,0.00,,,0.00,WUHU216WMR968SP,2013-04-18 22:35:00,
2013-04-18 18:40:00,54.7,-5.8,30.21,NW,312,2.2,6.3,8,0.00,,,0.00,WUHU216WMR968SP,2013-04-18 22:40:00,
2013-04-18 18:45:00,54.7,-5.8,30.21,ENE,66,2.7,6.3,8,0.00,,,0.00,WUHU216WMR968SP,2013-04-18 22:45:00,
2013-04-18 18:50:00,54.5,-6.0,30.21,SSE,156,3.1,6.3,8,0.00,,,0.00,WUHU216WMR968SP,2013-04-18 22:50:00,
2013-04-18 18:55:00,54.5,-6.0,30.21,WSW,244,0.0,5.8,8,0.00,,,0.00,WUHU216WMR968SP,2013-04-18 22:55:00,
2013-04-18 19:00:00,54.5,-6.0,30.21,North,353,2.7,5.8,8,0.00,,,0.00,WUHU216WMR968SP,2013-04-18 23:00:00,
2013-04-18 19:05:00,54.5,-6.0,30.21,SW,221,3.1,5.8,8,0.00,,,0.00,WUHU216WMR968SP,2013-04-18 23:05:00,
2013-04-18 19:10:00,54.3,-6.1,30.18,SW,234,3.1,4.9,8,0.00,,,0.00,WUHU216WMR968SP,2013-04-18 23:10:00,
2013-04-18 19:15:00,54.1,-6.3,30.18,WNW,289,3.1,5.8,8,0.00,,,0.00,WUHU216WMR968SP,2013-04-18 23:15:00,
2013-04-18 19:20:00,53.6,-6.6,30.18,SW,230,3.1,5.8,8,0.00,,,0.00,WUHU216WMR968SP,2013-04-18 23:20:00,
2013-04-18 19:25:00,53.4,-6.8,30.18,West,262,3.1,6.3,8,0.00,,,0.00,WUHU216WMR968SP,2013-04-18 23:25:00,
2013-04-18 19:30:00,53.6,-6.6,30.18,North,349,3.6,6.3,8,0.00,,,0.00,WUHU216WMR968SP,2013-04-18 23:30:00,
2013-04-18 19:35:00,53.8,-6.5,30.18,West,281,3.6,5.8,8,0.00,,,0.00,WUHU216WMR968SP,2013-04-18 23:35:00,
2013-04-18 19:40:00,53.8,-6.5,30.18,WSW,244,3.1,5.8,8,0.00,,,0.00,WUHU216WMR968SP,2013-04-18 23:40:00,
2013-04-18 19:45:00,53.6,-6.6,30.18,North,353,2.7,5.8,8,0.00,,,0.00,WUHU216WMR968SP,2013-04-18 23:45:00,
2013-04-18 19:50:00,53.4,-6.8,30.18,NE,41,2.2,6.3,8,0.00,,,0.00,WUHU216WMR968SP,2013-04-18 23:50:00,
2013-04-18 19:55:00,53.4,-6.8,30.18,West,261,0.0,6.3,8,0.00,,,0.00,WUHU216WMR968SP,2013-04-18 23:55:00,
2013-04-18 20:00:00,53.1,-7.0,30.18,SSE,166,0.0,4.9,8,0.00,,,0.00,WUHU216WMR968SP,2013-04-19 00:00:00,
2013-04-18 20:05:00,53.1,-7.0,30.18,NW,304,0.0,4.9,8,0.00,,,0.00,WUHU216WMR968SP,2013-04-19 00:05:00,
2013-04-18 20:10:00,53.1,-7.0,30.18,SE,144,2.2,4.9,8,0.00,,,0.00,WUHU216WMR968SP,2013-04-19 00:10:00,
2013-04-18 20:15:00,53.2,-6.9,30.18,WSW,243,0.0,5.8,8,0.00,,,0.00,WUHU216WMR968SP,2013-04-19 00:15:00,
2013-04-18 20:20:00,53.1,-7.0,30.18,North,357,0.0,5.8,8,0.00,,,0.00,WUHU216WMR968SP,2013-04-19 00:20:00,
2013-04-18 20:25:00,53.1,-7.0,30.18,NW,315,2.2,4.5,8,0.00,,,0.00,WUHU216WMR968SP,2013-04-19 00:25:00,
2013-04-18 20:30:00,52.9,-7.2,30.18,NE,52,2.7,5.4,8,0.00,,,0.00,WUHU216WMR968SP,2013-04-19 00:30:00,
2013-04-18 20:35:00,52.9,-7.2,30.18,North,357,2.7,5.4,8,0.00,,,0.00,WUHU216WMR968SP,2013-04-19 00:35:00,
2013-04-18 20:40:00,52.9,-7.2,30.15,WNW,285,3.1,6.3,8,0.00,,,0.00,WUHU216WMR968SP,2013-04-19 00:40:00,
2013-04-18 20:45:00,52.7,-7.3,30.15,NNE,31,3.1,6.3,8,0.00,,,0.00,WUHU216WMR968SP,2013-04-19 00:45:00,
2013-04-18 20:50:00,52.9,-7.2,30.15,NW,315,2.7,4.0,8,0.00,,,0.00,WUHU216WMR968SP,2013-04-19 00:50:00,
2013-04-18 20:55:00,52.9,-7.2,30.15,WNW,295,3.1,5.8,8,0.00,,,0.00,WUHU216WMR968SP,2013-04-19 00:55:00,
2013-04-18 21:00:00,52.7,-7.3,30.15,NNW,328,2.2,5.8,8,0.00,,,0.00,WUHU216WMR968SP,2013-04-19 01:00:00,
2013-04-18 21:05:00,52.2,-7.7,30.15,NW,323,2.2,4.9,8,0.00,,,0.00,WUHU216WMR968SP,2013-04-19 01:05:00,